Location: Aubrey
(33.1990°N, 85.1361°W)
Time: 11:42:20
(UTC+00:00)

Envisat - Pass Details

Date: 19 September 2021
Orbit: 764 x 766 km, 98.2° (Epoch: 23 October)

Event Time Altitude Azimuth Distance (km) Brightness Sun altitude
Rises 09:25:48 0° 39° (NE) 3,233 7.1 -25.6°
Reaches altitude 10° 09:29:49 10° 71° (ENE) 2,300 6.5 -24.8°
Maximum altitude 09:31:36 12° 92° (E) 2,176 6.2 -24.5°
Drops below altitude 10° 09:33:23 10° 113° (ESE) 2,295 6.1 -24.1°
Sets 09:37:21 0° 144° (SE) 3,214 6.4 -23.3°
